Location: Unspecified
(0.0000°N, 0.0000°E)
Time: 17:56:35
(UTC+02:00)

Orbus 21S - Visible Passes

Search period start: 23 June 2018 00:00
Search period end: 03 July 2018 00:00
Orbit: 303 x 32955 km, 24.3° (Epoch: 23 June)

Date Brightness Start Highest point End Pass type
(mag) Time Alt. Az. Time Alt. Az. Time Alt. Az.
23 Jun 6.4 03:09:42 57° ENE 03:09:42 57° ENE 11:47:59 10° E visible
25 Jun 6.3 03:24:05 66° ENE 03:24:05 66° ENE 12:06:11 10° E visible
27 Jun 6.2 03:38:25 74° NNE 03:38:25 74° NNE 12:23:39 10° E visible
29 Jun 6.2 03:52:44 73° NNW 03:52:44 73° NNW 12:40:33 10° E visible
01 Jul 6.3 04:06:59 66° NW 04:09:12 68° NNW 12:57:00 10° ESE visible
